When you browse on this site, cookies collect data to enhance your experience and personalize the content and advertising you see.
Visit our Privacy Policy to learn more. By continuing to use the site, you agree to this use of cookies and data.
  • In Germany
  • List of Countries
  • For 7 days
  • Water Temperature
  • Weather Map
  • Weather Widgets
  • user-avatar
    Login

    Hourly Weather Sevan

    Today, 20 January, Monday

    Time Temperature Precipitation Wind Pressure Humidity
    00:00 -6°C° 0 mm 1 mps 642 mmHg 87%
    01:00 -6°C° 0 mm 1 mps 642 mmHg 88%
    02:00 -6°C° 0 mm 0 mps 642 mmHg 89%
    03:00 -7°C° 0 mm 0 mps 642 mmHg 92%
    04:00 -7°C° 0 mm 0 mps 642 mmHg 91%
    05:00 -7°C° 0 mm 1 mps 642 mmHg 91%
    06:00 -7°C° 0 mm 1 mps 642 mmHg 90%
    07:00 -7°C° 0 mm 1 mps 642 mmHg 88%
    08:00 -6°C° 0 mm 0 mps 642 mmHg 86%
    09:00 -5°C° 0 mm 0 mps 643 mmHg 86%
    10:00 -4°C° 0 mm 0 mps 643 mmHg 86%
    11:00 -2°C° 0 mm 1 mps 643 mmHg 85%
    12:00 -1°C° 0 mm 1 mps 642 mmHg 85%
    13:00 -2°C° 0 mm 0 mps 642 mmHg 85%
    14:00 -2°C° 0 mm 0 mps 642 mmHg 84%
    15:00 -2°C° 0 mm 0 mps 642 mmHg 85%
    16:00 -3°C° 0 mm 0 mps 642 mmHg 85%
    17:00 -4°C° 0 mm 0 mps 641 mmHg 85%
    18:00 -6°C° 0 mm 1 mps 641 mmHg 85%
    19:00 -6°C° 0 mm 1 mps 641 mmHg 83%
    20:00 -6°C° 0 mm 1 mps 641 mmHg 82%
    21:00 -7°C° 0 mm 1 mps 641 mmHg 80%
    22:00 -7°C° 0 mm 1 mps 641 mmHg 79%
    23:00 -7°C° 0 mm 1 mps 641 mmHg 77%

    Tomorrow, 21 January, Tuesday

    Time Temperature Precipitation Wind Pressure Humidity
    00:00 -7°C° 0 mm 1 mps 641 mmHg 76%
    01:00 -8°C° 0 mm 1 mps 641 mmHg 76%
    02:00 -8°C° 0 mm 1 mps 641 mmHg 76%
    03:00 -8°C° 0 mm 1 mps 641 mmHg 75%
    04:00 -8°C° 0 mm 1 mps 641 mmHg 74%
    05:00 -8°C° 0 mm 1 mps 641 mmHg 73%
    06:00 -8°C° 0 mm 1 mps 641 mmHg 72%
    07:00 -7°C° 0 mm 1 mps 641 mmHg 70%
    08:00 -7°C° 0 mm 1 mps 641 mmHg 68%
    09:00 -6°C° 0 mm 1 mps 641 mmHg 66%
    10:00 -4°C° 0 mm 1 mps 642 mmHg 67%
    11:00 -2°C° 0 mm 1 mps 642 mmHg 68%
    12:00 -1°C° 0 mm 1 mps 642 mmHg 69%
    13:00 -1°C° 0 mm 1 mps 642 mmHg 71%
    14:00 -2°C° 0 mm 0 mps 641 mmHg 73%
    15:00 -2°C° 0 mm 0 mps 641 mmHg 75%
    16:00 -2°C° 0 mm 1 mps 641 mmHg 73%
    17:00 -4°C° 0 mm 1 mps 641 mmHg 71%
    18:00 -7°C° 0 mm 2 mps 641 mmHg 70%
    19:00 -7°C° 0 mm 2 mps 641 mmHg 68%
    20:00 -7°C° 0 mm 1 mps 641 mmHg 66%
    21:00 -7°C° 0 mm 1 mps 641 mmHg 64%
    22:00 -7°C° 0 mm 1 mps 641 mmHg 65%
    23:00 -8°C° 0 mm 1 mps 641 mmHg 65%

    Day after tomorrow, 22 January, Wednesday

    Time Temperature Precipitation Wind Pressure Humidity
    00:00 -8°C° 0 mm 1 mps 641 mmHg 66%
    01:00 -8°C° 0 mm 1 mps 641 mmHg 66%
    02:00 -8°C° 0 mm 1 mps 641 mmHg 65%
    03:00 -9°C° 0 mm 1 mps 641 mmHg 65%
    04:00 -9°C° 0 mm 1 mps 641 mmHg 66%
    05:00 -9°C° 0 mm 1 mps 641 mmHg 66%
    06:00 -9°C° 0 mm 1 mps 641 mmHg 67%
    07:00 -9°C° 0 mm 1 mps 641 mmHg 67%
    08:00 -8°C° 0 mm 1 mps 641 mmHg 67%
    09:00 -7°C° 0 mm 1 mps 642 mmHg 67%
    10:00 -6°C° 0 mm 1 mps 641 mmHg 68%
    11:00 -4°C° 0 mm 1 mps 641 mmHg 68%
    12:00 -3°C° 0 mm 1 mps 641 mmHg 69%
    13:00 -3°C° 0 mm 1 mps 640 mmHg 70%
    14:00 -3°C° 0 mm 1 mps 640 mmHg 72%
    15:00 -3°C° 0 mm 1 mps 639 mmHg 73%
    16:00 -4°C° 0 mm 1 mps 639 mmHg 72%
    17:00 -6°C° 0 mm 1 mps 639 mmHg 72%
    18:00 -8°C° 0 mm 2 mps 639 mmHg 71%
    19:00 -8°C° 0 mm 2 mps 638 mmHg 69%
    20:00 -8°C° 0 mm 1 mps 638 mmHg 68%
    21:00 -8°C° 0 mm 1 mps 638 mmHg 66%
    22:00 -9°C° 0 mm 2 mps 638 mmHg 67%
    23:00 -10°C° 0 mm 2 mps 638 mmHg 67%

    23 January, Thursday

    Time Temperature Precipitation Wind Pressure Humidity
    00:00 -10°C° 0 mm 2 mps 637 mmHg 67%
    01:00 -10°C° 0 mm 2 mps 637 mmHg 69%
    02:00 -10°C° 0 mm 2 mps 636 mmHg 70%
    03:00 -10°C° 0 mm 2 mps 636 mmHg 72%
    04:00 -9°C° 0 mm 1 mps 635 mmHg 72%
    05:00 -9°C° 0 mm 1 mps 635 mmHg 73%
    06:00 -10°C° 0 mm 1 mps 634 mmHg 74%
    07:00 -9°C° 0 mm 1 mps 634 mmHg 73%
    08:00 -8°C° 0 mm 1 mps 634 mmHg 73%
    09:00 -8°C° 0 mm 1 mps 634 mmHg 72%
    10:00 -7°C° 0 mm 1 mps 634 mmHg 72%
    11:00 -7°C° 0 mm 2 mps 633 mmHg 71%
    12:00 -6°C° 0 mm 2 mps 633 mmHg 71%
    13:00 -6°C° 0 mm 2 mps 633 mmHg 71%
    14:00 -4°C° 0 mm 1 mps 632 mmHg 71%
    15:00 -4°C° 0 mm 1 mps 632 mmHg 72%
    16:00 -4°C° 0.1 mm 1 mps 632 mmHg 75%
    17:00 -6°C° 0.1 mm 1 mps 632 mmHg 77%
    18:00 -6°C° 0.1 mm 1 mps 632 mmHg 80%
    19:00 -6°C° 0.3 mm 1 mps 632 mmHg 85%
    20:00 -6°C° 0.3 mm 1 mps 633 mmHg 89%
    21:00 -6°C° 0.3 mm 1 mps 633 mmHg 93%
    22:00 -7°C° 0.2 mm 1 mps 633 mmHg 94%
    23:00 -7°C° 0.2 mm 1 mps 633 mmHg 94%

    24 January, Friday

    Time Temperature Precipitation Wind Pressure Humidity
    00:00 -7°C° 0.2 mm 1 mps 633 mmHg 94%
    01:00 -7°C° 0.1 mm 1 mps 633 mmHg 93%
    02:00 -7°C° 0.1 mm 1 mps 633 mmHg 93%
    03:00 -7°C° 0.1 mm 1 mps 633 mmHg 92%
    04:00 -7°C° 0 mm 1 mps 633 mmHg 90%
    05:00 -8°C° 0 mm 1 mps 633 mmHg 89%
    06:00 -8°C° 0 mm 1 mps 634 mmHg 88%
    07:00 -8°C° 0 mm 1 mps 634 mmHg 85%
    08:00 -7°C° 0 mm 1 mps 635 mmHg 82%
    09:00 -7°C° 0 mm 1 mps 635 mmHg 79%
    10:00 -6°C° 0 mm 1 mps 636 mmHg 75%
    11:00 -6°C° 0 mm 2 mps 636 mmHg 72%
    12:00 -5°C° 0 mm 2 mps 636 mmHg 68%
    13:00 -5°C° 0 mm 2 mps 636 mmHg 67%
    14:00 -5°C° 0 mm 2 mps 636 mmHg 65%
    15:00 -5°C° 0 mm 2 mps 636 mmHg 64%
    16:00 -8°C° 0 mm 3 mps 637 mmHg 64%
    17:00 -9°C° 0 mm 3 mps 637 mmHg 65%
    18:00 -10°C° 0 mm 3 mps 638 mmHg 65%
    19:00 -10°C° 0 mm 3 mps 639 mmHg 67%
    20:00 -12°C° 0 mm 3 mps 639 mmHg 69%
    21:00 -12°C° 0 mm 3 mps 640 mmHg 70%
    22:00 -13°C° 0 mm 3 mps 640 mmHg 72%
    23:00 -13°C° 0 mm 3 mps 641 mmHg 73%

    25 January, Saturday

    Time Temperature Precipitation Wind Pressure Humidity
    00:00 -14°C° 0 mm 3 mps 641 mmHg 74%
    01:00 -14°C° 0 mm 3 mps 642 mmHg 75%
    02:00 -15°C° 0 mm 3 mps 642 mmHg 76%
    03:00 -15°C° 0 mm 3 mps 642 mmHg 77%
    04:00 -15°C° 0 mm 2 mps 642 mmHg 75%
    05:00 -15°C° 0 mm 2 mps 643 mmHg 73%
    06:00 -15°C° 0 mm 2 mps 643 mmHg 71%
    07:00 -14°C° 0 mm 2 mps 644 mmHg 68%
    08:00 -12°C° 0 mm 1 mps 644 mmHg 64%
    09:00 -11°C° 0 mm 1 mps 645 mmHg 60%
    10:00 -9°C° 0 mm 1 mps 645 mmHg 60%
    11:00 -8°C° 0 mm 1 mps 646 mmHg 59%
    12:00 -7°C° 0 mm 1 mps 646 mmHg 58%
    13:00 -7°C° 0 mm 0 mps 646 mmHg 61%
    14:00 -6°C° 0 mm 0 mps 645 mmHg 64%
    15:00 -6°C° 0 mm 0 mps 645 mmHg 67%
    16:00 -8°C° 0 mm 0 mps 645 mmHg 66%
    17:00 -9°C° 0 mm 1 mps 645 mmHg 64%
    18:00 -11°C° 0 mm 1 mps 645 mmHg 63%
    19:00 -11°C° 0 mm 1 mps 645 mmHg 60%
    20:00 -11°C° 0 mm 1 mps 645 mmHg 58%
    21:00 -11°C° 0 mm 1 mps 645 mmHg 55%
    22:00 -11°C° 0 mm 1 mps 645 mmHg 55%
    23:00 -11°C° 0 mm 1 mps 645 mmHg 56%
    Show more